Location: Kempten-Allg�u
(47.7250°N, 10.3114°E)
Time: 01:51:01
(UTC+01:00)

ISS - Visible Passes

Search period start: 17 January 2021 00:00
Search period end: 27 January 2021 00:00
Orbit: 418 x 419 km, 51.6° (Epoch: 17 January)

Date Brightness Start Highest point End Pass type
(mag) Time Alt. Az. Time Alt. Az. Time Alt. Az.
18 Jan -1.6 18:41:36 10° S 18:43:00 15° SSE 18:43:00 15° SSE visible
19 Jan -1.7 19:29:00 10° SW 19:30:29 23° SW 19:30:29 23° SW visible
20 Jan -2.9 18:41:31 10° SSW 18:44:36 34° SE 18:44:55 34° SE visible
21 Jan -2.2 17:54:16 10° SSW 17:56:58 23° SE 17:59:17 12° E visible
21 Jan -2.2 19:30:07 10° WSW 19:32:14 35° WSW 19:32:14 35° WSW visible
22 Jan -3.8 18:42:21 10° WSW 18:45:42 77° SSE 18:46:31 48° E visible
22 Jan -0.1 20:19:26 10° W 20:19:28 10° W 20:19:28 10° W visible
23 Jan -3.3 17:54:40 10° SW 17:57:57 52° SSE 18:00:45 13° ENE visible
23 Jan -2.1 19:31:30 10° W 19:33:42 33° WNW 19:33:42 33° WNW visible
24 Jan -3.5 18:43:35 10° W 18:46:56 60° NNW 18:47:54 39° NE visible
24 Jan -0.1 20:20:50 10° WNW 20:20:50 10° WNW 20:20:50 10° WNW visible
25 Jan -3.7 17:55:42 10° WSW 17:59:04 78° NNW 18:02:03 13° ENE visible
25 Jan -2.0 19:32:55 10° WNW 19:35:00 29° NW 19:35:00 29° NW visible
26 Jan -3.0 18:44:58 10° W 18:48:12 43° N 18:49:08 34° NE visible
26 Jan -0.2 20:22:04 10° WNW 20:22:04 10° WNW 20:22:04 10° WNW visible
